Weather History for Whiting Fld NAS, FL

Change the Weather History Date:

Sunday, September 15, 2013

  Actual Average Record
Temperature  
Mean Temperature 78 °F -  
Max Temperature 93 °F 84 °F 93 °F (2005)
Min Temperature 66 °F 67 °F 64 °F (1997)
Cooling Degree Days 14    
Growing Degree Days 28 (Base 50)    
Moisture  
Dew Point 66 °F    
Average Humidity 64    
Maximum Humidity 87    
Minimum Humidity 45    
Precipitation  
Precipitation 0.00 in - - ()
Sea Level Pressure  
Sea Level Pressure 29.99 in    
Wind  
Wind Speed 4 mph (East)    
Max Wind Speed 9 mph    
Max Gust Speed -    
Visibility 10 miles    
Events      
Averages and records for this station are not official NWS values.
T = Trace of Precipitation, MM = Missing Value Source: NWS Daily Summary

Daily Weather History Graph

Daily Weather History Graph

Search for Another Location

Airport:

Trip Planner

Search our weather history database for the weather conditions in past years. The results will help you decide how hot, cold, wet, or windy it might be!

Date:

Astronomy

Sep. 15, 2013 Rise Set
Actual Time 6:32 AM CDT 6:53 PM CDT
Civil Twilight 6:08 AM CDT 7:17 PM CDT
Nautical Twilight 5:40 AM CDT 7:45 PM CDT
Astronomical Twilight 5:11 AM CDT 8:14 PM CDT
Moon 4:08 PM CDT (9/15) 2:23 AM CDT (9/15)
Length of Visible Light 13h 09m
Length of Day
12h 20m
Waxing Gibbous, 82% of the Moon is Illuminated
Sep 15
Waxing Gibbous
Sep 19
Full
Sep 26
Last Quarter
Oct 4
New
Oct 11
First Quarter

Hourly Weather History & Observations

Time (CDT) Temp. Heat Index Dew Point Humidity Pressure Visibility Wind Dir Wind Speed Gust Speed Precip Events Conditions
12:56 AM 73.0 °F - 59.0 °F 61% 29.97 in 10.0 mi NNE 4.6 mph - N/A   Clear
1:56 AM 71.1 °F - 60.1 °F 68% 29.96 in 10.0 mi Calm Calm - N/A   Clear
2:56 AM 69.1 °F - 60.1 °F 73% 29.96 in 10.0 mi NNE 3.5 mph - N/A   Clear
3:56 AM 69.1 °F - 60.1 °F 73% 29.96 in 10.0 mi Calm Calm - 0.00 in   Clear
4:56 AM 66.9 °F - 60.1 °F 79% 29.96 in 10.0 mi Calm Calm - N/A   Clear
5:56 AM 66.9 °F - 61.0 °F 81% 29.97 in 10.0 mi North 3.5 mph - N/A   Clear
6:56 AM 66.9 °F - 60.1 °F 79% 29.98 in 10.0 mi North 4.6 mph - N/A   Clear
7:56 AM 72.0 °F - 61.0 °F 68% 29.99 in 10.0 mi ENE 5.8 mph - N/A   Clear
8:56 AM 79.0 °F - 64.0 °F 60% 30.01 in 10.0 mi ENE 4.6 mph - N/A   Clear
9:56 AM 84.0 °F 86.3 °F 66.0 °F 55% 30.02 in 10.0 mi East 8.1 mph - N/A   Clear
10:56 AM 88.0 °F 90.7 °F 66.9 °F 49% 30.02 in 10.0 mi ESE 9.2 mph - N/A   Clear
11:56 AM 89.1 °F 92.9 °F 68.0 °F 50% 30.01 in 10.0 mi East 8.1 mph - N/A   Clear
12:56 PM 89.1 °F 92.1 °F 66.9 °F 48% 30.00 in 10.0 mi East 3.5 mph - N/A   Mostly Cloudy
1:56 PM 91.9 °F 95.9 °F 68.0 °F 45% 29.99 in 10.0 mi Calm Calm - N/A   Mostly Cloudy
2:56 PM 91.0 °F 95.6 °F 69.1 °F 48% 29.97 in 10.0 mi Variable 4.6 mph - 0.00 in   Mostly Cloudy
3:56 PM 91.0 °F 95.6 °F 69.1 °F 48% 29.96 in 10.0 mi Variable 3.5 mph - N/A   Overcast
4:56 PM 91.0 °F 96.6 °F 70.0 °F 50% 29.96 in 10.0 mi NW 5.8 mph - N/A   Partly Cloudy
5:56 PM 87.1 °F 92.8 °F 71.1 °F 59% 29.97 in 9.0 mi SSW 8.1 mph - N/A   Scattered Clouds
6:56 PM 82.9 °F 87.5 °F 71.1 °F 67% 29.98 in 9.0 mi South 3.5 mph - N/A   Scattered Clouds
7:56 PM 82.0 °F 86.3 °F 71.1 °F 69% 30.00 in 9.0 mi Calm Calm - N/A   Partly Cloudy
8:56 PM 82.0 °F 86.3 °F 71.1 °F 69% 30.02 in 9.0 mi SW 3.5 mph - N/A   Scattered Clouds
9:56 PM 78.1 °F - 71.1 °F 79% 30.03 in 8.0 mi ESE 3.5 mph - N/A   Partly Cloudy
10:56 PM 77.0 °F - 71.1 °F 82% 30.03 in 8.0 mi Calm Calm - N/A   Mostly Cloudy
11:56 PM 73.9 °F - 70.0 °F 87% 30.03 in 5.0 mi Calm Calm - N/A   Clear